1495526400.74,58108,17.88,74068.3,9.25,-0.11,-0.07,0,*40
1495526401.93,58109,17.94,74070.0,9.23,0.05,0.01,0,*74
1495526403.11,58110,17.94,74070.5,9.23,0.01,0.01,0,*78
1495526404.32,58111,17.88,74070.3,9.19,-0.37,-0.33,0,*74
1495526405.55,58112,17.88,74068.5,9.19,0.25,0.41,0,*71
1495526406.8,58113,17.88,74070.8,9.19,0.83,0.87,0,*76
1495526408.0,58114,17.88,74068.3,9.21,0.87,1.01,0,*41
1495526409.24,58115,17.88,74066.5,9.19,0.59,0.51,0,*7C
1495526410.45,58116,17.88,74066.5,9.19,0.09,0.13,0,*4C
1495526411.69,58117,17.94,74068.5,9.19,0.41,0.47,0,*70
1495526412.91,58118,17.94,74066.5,9.17,0.47,0.59,0,*78
1495526414.12,58119,17.88,74066.0,9.15,0.43,0.55,0,*73
1495526415.36,58120,17.88,74064.3,9.19,0.37,0.51,0,*72
1495526416.56,58121,17.94,74064.5,9.15,-0.03,0.05,0,*54
1495526417.76,58122,17.94,74066.8,9.15,-0.29,-0.19,0,*7F
1495526418.91,58123,17.94,74066.8,9.13,0.01,0.01,0,*7B
1495526420.11,58124,17.94,74064.8,9.15,-0.15,-0.07,0,*49
1495526421.3,58125,17.94,74066.5,9.13,-0.19,-0.11,0,*75
1495526422.54,58126,17.88,74066.5,9.11,0.29,0.41,0,*72
1495526423.77,58127,17.88,74066.0,9.13,0.55,0.75,0,*7D
1495526425.0,58128,17.88,74064.8,9.11,0.17,0.41,0,*71
1495526426.23,58129,17.88,74064.3,9.13,0.79,0.91,0,*77
1495526427.47,58130,17.88,74066.3,9.11,0.41,0.47,0,*7D
1495526428.72,58131,17.94,74070.5,9.11,0.59,0.71,0,*70
1495526429.96,58132,17.88,74066.5,9.11,0.75,0.83,0,*70
1495526431.2,58133,17.94,74070.5,9.11,0.63,0.83,0,*76
1495526432.41,58134,17.94,74068.8,9.13,1.01,1.13,0,*7E
1495526433.64,58135,17.94,74070.3,9.13,1.17,1.37,0,*7E
1495526434.88,58136,17.94,74068.5,9.13,1.17,1.37,0,*7D
1495526436.08,58137,17.94,74070.0,9.13,1.41,1.59,0,*77
1495526437.31,58138,17.94,74070.3,9.13,1.37,1.47,0,*76
1495526438.51,58139,17.94,74068.5,9.15,1.75,1.83,0,*7F
1495526439.72,58140,17.88,74064.0,9.17,1.67,1.79,0,*75
1495526440.92,58141,17.88,74064.3,9.17,1.67,1.79,0,*74
1495526442.12,58142,17.88,74066.8,9.17,1.83,2.01,0,*71
1495526443.35,58143,17.94,74066.8,9.21,1.47,1.51,0,*7B
1495526444.58,58144,17.94,74068.0,9.21,1.37,1.51,0,*7B
1495526445.82,58145,17.94,74070.5,9.21,1.09,1.17,0,*75
1495526447.05,58146,17.94,74066.0,9.21,1.17,1.47,0,*7C
1495526448.27,58147,17.94,74070.0,9.21,1.47,1.71,0,*7D
1495526449.5,58148,17.94,74066.0,9.21,1.37,1.63,0,*76
1495526450.71,58149,17.94,74066.3,9.21,1.71,1.83,0,*7B
1495526451.95,58150,17.94,74070.3,9.21,1.37,1.51,0,*7E
1495526453.15,58151,17.94,74064.3,9.25,1.67,1.79,0,*74
1495526454.35,58152,17.94,74068.8,9.25,1.67,1.79,0,*77
1495526455.55,58153,17.94,74068.0,9.25,1.79,1.93,0,*7D
1495526456.77,58154,17.94,74068.5,9.25,1.67,1.85,0,*72
1495526458.0,58155,17.94,74070.3,9.25,1.67,1.85,0,*73
1495526459.26,58156,17.94,74070.8,9.27,1.13,1.21,0,*7F
1495526460.49,58157,17.94,74066.3,9.31,0.97,1.09,0,*4E
1495526461.71,58158,17.88,74066.3,9.27,0.91,1.05,0,*4C
1495526462.98,58159,17.94,74068.0,9.27,1.13,1.21,0,*70
1495526464.23,58160,17.94,74068.0,9.27,1.29,1.43,0,*77
1495526465.49,58161,17.94,74066.0,9.31,1.37,1.47,0,*7A
1495526466.74,58162,17.94,74066.0,9.31,1.33,1.43,0,*79
1495526467.96,58163,17.94,74064.5,9.27,1.79,1.89,0,*77
1495526469.21,58164,17.94,74068.0,9.31,2.09,2.05,0,*74
1495526470.46,58165,17.88,74066.3,9.31,2.43,2.39,0,*74
1495526471.7,58166,17.94,74064.3,9.31,2.21,2.21,0,*7A
1495526472.95,58167,17.94,74066.5,9.35,2.25,2.21,0,*7B
1495526474.18,58168,17.88,74064.5,9.35,1.85,1.75,0,*7F
1495526475.42,58169,17.94,74068.0,9.35,1.93,1.93,0,*71
1495526476.66,58170,17.94,74068.0,9.35,1.59,1.51,0,*71
1495526477.89,58171,17.94,74068.8,9.37,2.05,2.05,0,*7A
1495526479.11,58172,17.94,74070.5,9.39,2.27,2.17,0,*74
1495526480.31,58173,17.94,74068.8,9.37,2.35,2.25,0,*79
1495526481.56,58174,17.94,74068.5,9.39,1.97,1.85,0,*72
1495526482.81,58175,17.94,74066.8,9.39,2.17,2.17,0,*70
1495526484.05,58176,17.94,74070.8,9.43,2.25,2.13,0,*7B
1495526485.27,58177,17.94,74068.8,9.43,2.09,1.93,0,*7F
1495526486.48,58178,17.94,74066.5,9.43,2.05,1.83,0,*7D
1495526487.7,58179,17.94,74068.8,9.43,2.21,2.05,0,*77
1495526488.92,58180,17.94,74070.8,9.47,2.13,1.89,0,*73
1495526490.17,58181,17.94,74068.5,9.45,2.05,1.93,0,*7C
1495526491.37,58182,17.94,74068.5,9.47,2.35,2.13,0,*75
1495526492.59,58183,17.94,74068.3,9.47,2.13,1.97,0,*7F
1495526493.79,58184,17.94,74070.5,9.47,2.35,2.09,0,*78
1495526495.02,58185,17.94,74068.8,9.49,2.27,2.13,0,*7F
1495526496.27,58186,17.94,74066.3,9.49,2.09,1.85,0,*7C
1495526497.52,58187,17.94,74070.8,9.53,2.21,2.05,0,*77
1495526498.78,58188,17.94,74070.0,9.53,2.43,2.13,0,*7B
1495526500.03,58189,17.94,74070.8,9.53,2.43,2.21,0,*7B
1495526501.25,58190,17.94,74068.5,9.55,2.47,2.25,0,*75
1495526502.48,58191,17.94,74066.5,9.55,2.59,2.25,0,*7B
1495526503.67,58192,17.94,74066.3,9.57,2.65,2.31,0,*70
1495526504.88,58193,17.94,74068.0,9.57,2.65,2.35,0,*75
1495526506.11,58194,17.94,74070.8,9.59,2.81,2.39,0,*7A
1495526507.33,58195,17.94,74068.0,9.63,2.77,2.43,0,*76
1495526508.58,58196,17.94,74068.0,9.61,2.77,2.39,0,*7A
1495526509.81,58197,17.94,74070.0,9.63,2.39,2.05,0,*7C
1495526511.03,58198,17.94,74068.0,9.63,2.39,2.01,0,*77
1495526512.24,58199,17.94,74070.0,9.65,2.27,1.83,0,*76
1495526513.49,58200,17.94,74070.8,9.65,1.97,1.47,0,*75
1495526514.72,58201,17.94,74070.8,9.65,1.83,1.37,0,*76
1495526515.92,58202,17.94,74074.0,9.65,2.35,1.83,0,*74
1495526517.18,58203,17.94,74070.0,9.65,2.47,2.05,0,*7D
1495526518.43,58204,17.94,74068.5,9.65,2.55,2.09,0,*75
1495526519.68,58205,17.94,74070.8,9.65,2.43,1.93,0,*73
1495526520.9,58206,17.94,74070.0,9.65,2.35,1.97,0,*75
1495526522.13,58207,17.94,74068.8,9.67,2.59,2.09,0,*78
1495526523.39,58208,17.94,74068.5,9.69,2.25,1.85,0,*75
1495526524.61,58209,17.94,74070.5,9.69,2.21,1.79,0,*73
1495526525.85,58210,17.94,74066.3,9.69,2.09,1.59,0,*73
1495526527.07,58211,17.94,74070.3,9.71,2.01,1.63,0,*7A
1495526528.29,58212,17.94,74070.0,9.71,2.13,1.71,0,*79
1495526529.46,58213,17.94,74070.8,9.71,2.35,1.79,0,*74
1495526530.72,58214,17.94,74068.5,9.73,2.17,1.67,0,*7E
1495526531.97,58215,17.94,74066.3,9.73,2.05,1.63,0,*78
1495526533.18,58216,17.94,74068.8,9.73,2.27,1.83,0,*75
1495526534.4,58217,17.94,74068.0,9.77,2.21,1.75,0,*7F
1495526535.64,58218,17.94,74070.0,9.77,2.43,1.97,0,*78
1495526536.87,58219,17.94,74068.3,9.77,2.27,1.85,0,*78
1495526538.12,58220,17.94,74070.0,9.77,1.71,1.37,0,*7B
1495526539.37,58221,17.94,74068.8,9.77,1.55,1.13,0,*7A
1495526540.62,58222,17.94,74070.3,9.77,1.59,1.21,0,*74
1495526541.86,58223,17.94,74066.5,9.77,2.09,1.71,0,*76
1495526543.12,58224,17.94,74070.5,9.77,2.17,1.85,0,*75
1495526544.34,58225,17.94,74072.3,9.79,2.01,1.63,0,*75
1495526545.54,58226,17.94,74070.8,9.79,2.31,1.97,0,*7E
1495526546.77,58227,17.88,74064.5,9.79,2.13,1.71,0,*77
1495526547.97,58228,17.94,74070.8,9.79,2.35,2.01,0,*78
1495526549.2,58229,17.94,74070.8,9.79,2.43,2.09,0,*70
1495526550.39,58230,17.94,74068.5,9.83,2.35,1.89,0,*77
1495526551.59,58231,17.94,74070.0,9.83,2.25,1.83,0,*7D
1495526552.8,58232,17.94,74068.5,9.83,2.25,1.83,0,*7E
1495526554.04,58233,17.94,74072.5,9.81,1.89,1.51,0,*77
1495526555.24,58234,17.94,74072.8,9.83,2.35,1.89,0,*73
1495526556.47,58235,17.94,74074.3,9.83,2.51,2.05,0,*77
1495526557.69,58236,17.94,74070.0,9.83,2.25,1.67,0,*70
1495526558.89,58237,17.94,74070.8,9.83,2.27,1.63,0,*77
1495526560.09,58238,17.94,74070.3,9.85,2.27,1.75,0,*79
1495526561.29,58239,17.94,74068.3,9.85,2.35,1.79,0,*77
1495526562.54,58240,17.94,74070.5,9.85,2.05,1.43,0,*73
1495526563.79,58241,17.94,74068.8,9.85,2.17,1.43,0,*71
1495526565.04,58242,17.94,74070.0,9.85,1.93,1.29,0,*71
1495526566.28,58243,17.94,74070.0,9.85,2.25,1.51,0,*71
1495526567.51,58244,17.94,74074.0,9.87,2.69,2.17,0,*7D
1495526568.74,58245,17.94,74074.0,9.87,2.59,1.97,0,*74
1495526569.96,58246,17.94,74072.3,9.87,2.69,2.05,0,*7C
1495526571.16,58247,17.94,74070.5,9.87,2.89,2.31,0,*74
1495526572.36,58248,17.94,74070.5,9.89,2.95,2.35,0,*7C
1495526573.56,58249,17.94,74068.5,9.91,2.91,2.25,0,*71
1495526574.81,58250,17.94,74070.0,9.93,2.85,2.17,0,*7F
1495526576.07,58251,17.94,74068.3,9.93,2.59,1.85,0,*77
1495526577.32,58252,17.94,74068.0,9.93,1.85,1.17,0,*7D
1495526578.56,58253,17.94,74068.3,9.93,1.67,0.95,0,*4B
1495526579.82,58254,17.94,74070.0,9.93,1.85,1.17,0,*7B
1495526581.01,58255,17.94,74074.3,9.93,2.35,1.75,0,*76
1495526582.24,58256,17.94,74070.3,9.93,2.39,1.75,0,*79
1495526583.5,58257,17.94,74070.8,9.93,2.51,1.85,0,*79
1495526584.75,58258,17.94,74070.3,9.93,2.59,2.01,0,*71
1495526585.96,58259,17.94,74074.5,9.95,2.43,1.83,0,*74
1495526587.18,58260,17.94,74070.3,9.95,2.55,1.93,0,*78
1495526588.4,58261,17.94,74070.3,9.99,2.55,1.89,0,*7E
1495526589.65,58262,17.94,74070.5,10.01,2.25,1.71,0,*44
1495526590.89,58263,17.94,74070.8,10.01,2.13,1.47,0,*45
1495526592.14,58264,17.94,74068.0,10.01,2.09,1.47,0,*49
1495526593.39,58265,17.94,74068.3,10.01,2.13,1.51,0,*44
1495526594.61,58266,17.94,74072.8,10.01,2.31,1.71,0,*45
1495526595.82,58267,17.94,74072.3,10.01,2.31,1.83,0,*49
1495526597.07,58268,17.94,74070.8,10.01,2.43,1.93,0,*42
1495526598.27,58269,17.94,74068.3,10.03,2.73,2.27,0,*4E
1495526599.5,58270,17.94,74070.3,10.03,2.25,1.85,0,*4E
1495526600.7,58271,17.94,74070.8,10.05,2.35,1.89,0,*44
1495526601.91,58272,17.94,74066.3,10.05,2.61,2.25,0,*43
1495526603.15,58273,17.94,74070.3,10.05,2.51,1.97,0,*4B
1495526604.41,58274,17.94,74068.8,10.07,2.39,1.89,0,*4F
1495526605.61,58275,17.94,74068.5,10.09,2.31,1.93,0,*43
1495526606.82,58276,17.94,74070.0,10.09,2.13,1.83,0,*41
1495526608.02,58277,17.94,74070.3,10.09,1.83,1.37,0,*45
1495526609.3,58278,17.94,74070.5,10.07,1.37,1.09,0,*46
1495526610.53,58279,17.94,74068.3,10.09,1.33,0.87,0,*7A
1495526611.79,58280,17.94,74070.0,10.07,1.47,1.17,0,*49
1495526613.06,58281,17.94,74070.0,10.07,1.33,0.87,0,*73
1495526614.32,58282,17.94,74068.8,10.07,1.59,1.37,0,*46
1495526615.55,58283,17.94,74070.0,10.07,1.79,1.59,0,*4D
1495526616.78,58284,17.94,74068.5,10.09,1.85,1.63,0,*4E
1495526618.01,58285,17.94,74070.0,10.11,1.83,1.59,0,*49
1495526619.26,58286,17.94,74070.0,10.11,0.75,0.55,0,*4F
1495526620.52,58287,17.94,74070.8,10.11,0.79,0.51,0,*46
1495526621.74,58288,17.94,74068.5,10.09,0.75,0.47,0,*4B
1495526622.98,58289,17.94,74070.5,10.09,1.21,0.91,0,*71
1495526624.23,58290,17.94,74070.0,10.07,0.95,0.63,0,*44
1495526625.5,58291,17.94,74070.8,10.07,1.33,1.09,0,*45
1495526626.74,58292,17.94,74068.5,10.09,1.25,1.09,0,*4F
1495526627.97,58293,17.94,74072.3,10.07,1.05,0.95,0,*76
1495526629.23,58294,17.94,74066.0,10.07,1.33,1.17,0,*4F
1495526630.47,58295,17.94,74070.0,10.11,1.09,1.01,0,*47
1495526631.72,58296,17.94,74070.0,10.09,1.37,1.21,0,*42
1495526632.96,58297,17.94,74070.0,10.09,1.29,1.21,0,*4C
1495526634.21,58298,17.94,74066.5,10.07,0.75,0.51,0,*43
1495526635.43,58299,17.94,74064.0,10.09,0.55,0.47,0,*49
1495526636.68,58300,17.94,74064.0,10.07,0.75,0.75,0,*45
1495526637.91,58301,17.94,74066.0,10.09,1.51,1.47,0,*4D
1495526639.09,58302,17.94,74070.0,10.09,1.83,1.75,0,*40
1495526640.34,58303,17.94,74068.8,10.07,1.67,1.71,0,*41
1495526641.58,58304,17.94,74070.0,10.09,1.85,1.85,0,*4F
1495526642.84,58305,17.94,74070.5,10.11,2.05,2.09,0,*4B
1495526644.1,58306,17.94,74066.0,10.11,1.97,1.97,0,*44
1495526645.34,58307,17.94,74068.0,10.13,1.33,1.25,0,*40
1495526646.58,58308,17.94,74066.0,10.13,1.33,1.17,0,*4E
1495526647.81,58309,17.94,74068.3,10.13,1.51,1.63,0,*48
1495526649.04,58310,17.94,74068.3,10.15,1.17,1.05,0,*44
1495526650.28,58311,17.94,74070.8,10.17,1.29,1.29,0,*44
1495526651.52,58312,17.94,74068.3,10.15,1.13,1.01,0,*46
1495526652.77,58313,17.94,74070.0,10.15,0.79,0.67,0,*4B
1495526653.97,58314,17.94,74070.0,10.15,1.05,1.01,0,*47
1495526655.23,58315,17.94,74066.0,10.15,0.55,0.51,0,*46
1495526656.47,58316,17.94,74074.5,10.15,0.41,0.41,0,*41
1495526657.68,58317,17.94,74070.8,10.13,0.33,0.29,0,*4D
1495526658.87,58318,17.94,74068.8,10.13,0.17,0.05,0,*7A
1495526660.09,58319,17.94,74070.0,10.13,0.17,0.29,0,*45
1495526661.3,58320,17.94,74070.0,10.09,0.37,0.37,0,*49
1495526662.55,58321,17.94,74070.3,10.07,0.25,0.25,0,*46
1495526663.77,58322,17.94,74072.3,10.09,0.25,0.25,0,*4B
1495526664.93,58323,17.94,74068.8,10.09,0.01,0.05,0,*4E
1495526666.17,58324,17.94,74066.0,10.07,0.37,0.37,0,*43
1495526667.4,58325,17.94,74068.8,10.07,0.43,0.47,0,*46
1495526668.65,58326,17.94,74068.5,10.07,0.51,0.59,0,*49
1495526669.91,58327,17.88,74066.5,10.07,1.33,1.47,0,*43
1495526671.12,58328,17.94,74068.8,10.09,1.71,1.83,0,*4C
1495526672.33,58329,17.94,74064.5,10.09,1.71,1.83,0,*4D
1495526673.57,58330,17.94,74070.8,10.09,1.29,1.29,0,*48
1495526674.77,58331,17.94,74070.8,10.09,0.91,0.97,0,*4F
1495526676.0,58332,17.94,74070.8,10.11,0.91,0.97,0,*45
1495526677.24,58333,17.88,74066.8,10.11,0.63,0.67,0,*46
1495526678.5,58334,17.94,74068.5,10.11,0.87,0.91,0,*42
1495526679.74,58335,17.94,74070.8,10.11,0.75,0.79,0,*48
1495526680.99,58336,17.94,74070.5,10.11,0.63,0.67,0,*43
1495526682.2,58337,17.94,74070.8,10.09,0.75,0.79,0,*43
1495526683.41,58338,17.94,74068.3,10.09,0.37,0.41,0,*41
1495526684.64,58339,17.94,74068.3,10.07,0.33,0.43,0,*48
1495526685.84,58340,17.94,74068.5,10.09,1.47,1.75,0,*4E
1495526687.05,58341,17.94,74068.0,10.09,1.75,1.97,0,*42
1495526688.28,58342,17.94,74074.0,10.09,1.85,2.05,0,*46
1495526689.51,58343,17.94,74068.5,10.11,1.83,1.97,0,*40
1495526690.74,58344,17.88,74068.0,10.13,2.09,2.25,0,*4E
1495526691.94,58345,17.94,74070.5,10.13,1.79,1.89,0,*4E
1495526693.15,58346,17.94,74070.8,10.13,2.09,2.27,0,*4E
1495526694.38,58347,17.94,74074.5,10.15,2.35,2.59,0,*4F
1495526695.59,58348,17.94,74072.0,10.17,2.17,2.31,0,*4C
1495526696.81,58349,17.94,74070.3,10.17,2.05,2.21,0,*4F
1495526698.04,58350,17.94,74070.8,10.21,2.09,2.21,0,*4E
1495526699.3,58351,17.94,74068.8,10.23,2.05,2.17,0,*44
1495526700.53,58352,17.94,74072.3,10.23,1.75,1.85,0,*4B
1495526701.77,58353,17.94,74068.0,10.23,1.83,1.85,0,*43
1495526703.02,58354,17.94,74072.5,10.23,1.51,1.63,0,*43
1495526704.27,58355,17.94,74074.0,10.27,1.89,2.09,0,*4C
1495526705.53,58356,17.88,74070.8,10.27,1.97,2.09,0,*40
1495526706.78,58357,17.94,74074.3,10.27,1.43,1.51,0,*46
1495526708.04,58358,17.94,74070.8,10.27,1.51,1.63,0,*4B
1495526709.25,58359,17.94,74070.5,10.27,1.75,1.79,0,*47
1495526710.48,58360,17.94,74070.3,10.25,1.63,1.85,0,*4B
1495526711.73,58361,17.94,74070.3,10.27,1.51,1.63,0,*41
1495526712.98,58362,17.94,74074.8,10.27,0.95,0.91,0,*47
1495526714.17,58363,17.94,74072.8,10.25,0.17,0.09,0,*7F
1495526715.4,58364,17.94,74070.3,10.27,1.01,1.13,0,*46
1495526716.65,58365,17.94,74070.5,10.27,0.51,0.55,0,*40
1495526717.86,58366,17.88,74070.5,10.25,0.33,0.33,0,*45
1495526719.1,58367,17.94,74072.8,10.23,0.25,0.37,0,*41
1495526720.32,58368,17.94,74074.3,10.21,0.41,0.47,0,*49
1495526721.56,58369,17.94,74070.5,10.23,0.59,0.75,0,*42
1495526722.78,58370,17.94,74068.8,10.21,0.59,0.59,0,*46
1495526724.0,58371,17.94,74070.8,10.21,0.59,0.59,0,*47
1495526725.21,58372,17.94,74068.3,10.21,0.67,0.67,0,*44
1495526726.46,58373,17.94,74070.5,10.15,0.41,0.51,0,*43
1495526727.68,58374,17.94,74070.3,10.17,0.21,0.21,0,*47
1495526728.9,58375,17.94,74074.3,10.15,0.33,0.43,0,*43
1495526730.15,58376,17.94,74070.0,10.15,0.79,0.79,0,*47
1495526731.39,58377,17.94,74068.3,10.15,0.71,0.79,0,*4E
1495526732.61,58378,17.94,74070.8,10.13,0.79,0.95,0,*4D
1495526733.83,58379,17.94,74068.8,10.13,0.67,0.59,0,*43
1495526735.05,58380,17.94,74070.0,10.13,0.91,0.95,0,*4C
1495526736.26,58381,17.94,74070.3,10.13,1.01,1.17,0,*4E
1495526737.48,58382,17.94,74068.5,10.13,0.83,0.91,0,*49
1495526738.7,58383,17.88,74068.0,10.13,0.59,0.67,0,*46
1495526739.95,58384,17.94,74070.8,10.11,0.47,0.51,0,*49
1495526741.2,58385,17.94,74068.5,10.11,0.17,0.47,0,*4A
1495526742.46,58386,17.94,74070.3,10.11,0.87,0.91,0,*4B
1495526743.71,58387,17.94,74068.8,10.11,0.47,0.47,0,*4D
1495526744.96,58388,17.88,74068.0,10.11,0.51,0.55,0,*46
1495526746.17,58389,17.88,74070.5,10.09,0.63,0.67,0,*4E
1495526747.4,58390,17.94,74070.3,10.09,0.51,0.51,0,*42
1495526748.66,58391,17.94,74068.8,10.07,1.25,1.37,0,*4E
1495526749.87,58392,17.88,74070.8,10.09,1.01,1.09,0,*48
1495526751.09,58393,17.94,74070.8,10.09,0.63,0.51,0,*40
1495526752.34,58394,17.94,74072.8,10.07,0.71,0.71,0,*48
1495526753.6,58395,17.94,74072.0,10.07,0.87,0.87,0,*49
1495526754.81,58396,17.94,74072.0,10.07,0.97,1.05,0,*70
1495526756.06,58397,17.94,74070.5,10.07,0.83,0.87,0,*4F
1495526757.33,58398,17.94,74074.3,10.07,1.17,1.17,0,*44
1495526758.57,58399,17.88,74070.0,10.07,0.75,0.75,0,*45
1495526759.83,58400,17.88,74068.0,10.07,0.71,0.83,0,*4F
1495526761.09,58401,17.94,74072.0,10.07,1.09,1.17,0,*4C
1495526762.3,58402,17.88,74070.0,10.09,1.01,1.13,0,*4D
1495526763.57,58403,17.94,74074.5,10.07,1.33,1.37,0,*45
1495526764.84,58404,17.94,74070.5,10.07,1.37,1.47,0,*41
1495526766.07,58405,17.88,74068.0,10.07,1.75,1.89,0,*44
1495526767.3,58406,17.94,74074.8,10.09,2.05,2.13,0,*4D
1495526768.54,58407,17.94,74072.3,10.09,1.97,2.13,0,*44
1495526769.8,58408,17.94,74070.5,10.11,1.93,2.05,0,*41
1495526771.03,58409,17.88,74070.8,10.13,1.51,1.63,0,*4F
1495526772.26,58410,17.94,74068.8,10.11,1.75,1.97,0,*48
1495526773.46,58411,17.94,74068.8,10.13,1.79,1.97,0,*47
1495526774.69,58412,17.88,74068.3,10.11,1.83,1.93,0,*47
1495526775.93,58413,17.94,74074.5,10.13,1.97,2.17,0,*4E
1495526777.19,58414,17.94,74072.5,10.15,2.13,2.39,0,*4C
1495526778.42,58415,17.88,74072.0,10.15,2.25,2.35,0,*44
1495526779.63,58416,17.88,74070.0,10.17,2.17,2.31,0,*40
1495526780.86,58417,17.94,74072.0,10.17,1.89,2.05,0,*42
1495526782.08,58418,17.94,74070.8,10.21,1.47,1.67,0,*4D
1495526783.32,58419,17.88,74070.3,10.21,1.37,1.47,0,*49
1495526784.52,58420,17.94,74072.3,10.21,1.25,1.41,0,*46
1495526785.75,58421,17.88,74070.8,10.21,1.25,1.33,0,*42
1495526786.97,58422,17.88,74068.8,10.17,0.75,0.87,0,*4E
1495526788.2,58423,17.94,74072.5,10.15,1.05,1.17,0,*43
1495526789.44,58424,17.88,74070.0,10.15,1.29,1.41,0,*49
1495526790.66,58425,17.94,74074.3,10.17,1.67,1.89,0,*44
1495526791.88,58426,17.88,74074.3,10.17,1.47,1.59,0,*48
1495526793.11,58427,17.88,74074.8,10.15,1.41,1.55,0,*41
1495526794.34,58428,17.94,74074.8,10.17,1.29,1.47,0,*41
1495526795.56,58429,17.94,74072.3,10.17,0.63,0.83,0,*46
1495526796.79,58430,17.94,74074.8,10.15,0.91,1.01,0,*7A
1495526798.06,58431,17.94,74072.0,10.15,1.25,1.33,0,*44
1495526799.32,58432,17.88,74068.3,10.15,1.29,1.43,0,*4C
1495526800.52,58433,17.88,74072.5,10.17,1.59,1.83,0,*44
1495526801.75,58434,17.88,74074.0,10.17,1.93,2.13,0,*4F
1495526802.99,58435,17.94,74072.3,10.17,2.17,2.43,0,*44
1495526804.22,58436,17.94,74072.5,10.21,2.05,2.21,0,*45
1495526805.45,58437,17.94,74072.5,10.23,2.09,2.35,0,*4F
1495526806.71,58438,17.88,74072.0,10.23,1.85,2.09,0,*48
1495526807.93,58439,17.94,74072.0,10.23,2.21,2.35,0,*4B
1495526809.19,58440,17.88,74068.5,10.23,2.21,2.43,0,*44
1495526810.44,58441,17.88,74074.0,10.27,2.25,2.47,0,*41
1495526811.67,58442,17.88,74068.8,10.25,2.21,2.39,0,*4D
1495526812.87,58443,17.94,74074.0,10.25,2.09,2.27,0,*49
1495526814.1,58444,17.88,74068.8,10.27,2.09,2.35,0,*4F
1495526815.32,58445,17.88,74074.0,10.29,1.89,2.25,0,*4A
1495526816.53,58446,17.94,74072.3,10.29,1.79,2.01,0,*40
1495526817.73,58447,17.88,74072.0,10.29,1.79,1.93,0,*49
1495526818.99,58448,17.88,74070.5,10.31,1.93,2.21,0,*41
1495526820.22,58449,17.94,74072.5,10.31,2.05,2.27,0,*4A
1495526821.45,58450,17.94,74072.0,10.31,2.27,2.55,0,*47
1495526822.71,58451,17.94,74074.0,10.31,2.55,2.81,0,*4A
1495526823.97,58452,17.94,74074.0,10.35,2.39,2.73,0,*4A
1495526825.22,58453,17.94,74072.3,10.35,2.39,2.73,0,*4B
1495526826.48,58454,17.88,74074.5,10.35,2.39,2.69,0,*47
1495526827.7,58455,17.88,74072.3,10.35,2.13,2.35,0,*47
1495526828.96,58456,17.88,74072.3,10.35,2.39,2.69,0,*45
1495526830.19,58457,17.94,74072.8,10.39,1.43,1.67,0,*4B
1495526831.45,58458,17.88,74070.0,10.37,1.33,1.51,0,*48
1495526832.68,58459,17.88,74068.0,10.37,0.97,1.17,0,*74
1495526833.95,58460,17.88,74072.3,10.37,1.17,1.33,0,*41
1495526835.19,58461,17.88,74072.3,10.35,1.67,1.89,0,*44
1495526836.45,58462,17.88,74072.0,10.35,1.63,1.85,0,*4F
1495526837.68,58463,17.94,74074.3,10.33,1.55,1.67,0,*41
1495526838.9,58464,17.94,74072.3,10.35,2.21,2.31,0,*40
1495526840.12,58465,17.88,74068.5,10.35,2.25,2.35,0,*41
1495526841.38,58466,17.88,74072.3,10.37,2.13,2.25,0,*44
1495526842.61,58467,17.94,74074.0,10.37,2.35,2.43,0,*41
1495526843.82,58468,17.94,74072.3,10.39,2.35,2.43,0,*40
1495526845.06,58469,17.88,74068.8,10.37,2.35,2.43,0,*4F
1495526846.27,58470,17.94,74074.0,10.39,2.35,2.43,0,*49
1495526847.48,58471,17.94,74072.3,10.39,2.17,2.27,0,*4A
1495526848.69,58472,17.94,74074.0,10.39,2.25,2.35,0,*4B
1495526849.93,58473,17.94,74072.5,10.39,2.39,2.51,0,*45
1495526851.18,58474,17.88,74074.3,10.41,2.43,2.55,0,*44
1495526852.44,58475,17.94,74074.0,10.41,2.43,2.59,0,*49
1495526853.7,58476,17.88,74072.3,10.45,2.43,2.59,0,*4E
1495526854.93,58477,17.94,74072.0,10.45,1.79,1.97,0,*44
1495526856.17,58478,17.88,74072.0,10.45,1.67,1.89,0,*4B
1495526857.42,58479,17.88,74074.8,10.45,1.51,1.67,0,*4F
1495526858.65,58480,17.88,74068.5,10.45,1.75,2.09,0,*44
1495526859.88,58481,17.88,74068.3,10.41,1.75,1.97,0,*45
1495526861.13,58482,17.88,74070.0,10.41,1.63,1.93,0,*45
1495526862.38,58483,17.94,74074.0,10.45,1.89,2.21,0,*4E
1495526863.63,58484,17.88,74072.3,10.45,1.89,2.21,0,*49
1495526864.86,58485,17.88,74072.0,10.45,1.97,2.27,0,*41
1495526866.11,58486,17.88,74070.8,10.45,2.25,2.59,0,*41
1495526867.37,58487,17.88,74074.3,10.45,2.43,2.81,0,*45
1495526868.6,58488,17.88,74070.8,10.45,2.31,2.69,0,*49
1495526869.85,58489,17.88,74068.3,10.45,1.59,2.01,0,*4B
1495526871.1,58490,17.88,74072.5,10.45,1.51,1.89,0,*48
1495526872.32,58491,17.88,74072.8,10.47,2.13,2.61,0,*4B
1495526873.53,58492,17.88,74072.8,10.47,2.13,2.61,0,*48
1495526874.76,58493,17.88,74074.0,10.45,2.35,2.77,0,*48
1495526875.99,58494,17.88,74074.5,10.45,2.31,2.85,0,*46
1495526877.23,58495,17.94,74074.0,10.47,2.25,2.81,0,*44
1495526878.46,58496,17.88,74072.0,10.49,2.77,3.25,0,*41
1495526879.67,58497,17.88,74074.8,10.47,2.81,3.29,0,*4B
1495526880.88,58498,17.88,74072.5,10.47,2.47,2.95,0,*48
1495526882.11,58499,17.88,74072.3,10.49,2.61,3.07,0,*49
1495526883.32,58500,17.88,74068.3,10.47,2.51,2.91,0,*4B
1495526884.58,58501,17.88,74074.3,10.49,2.55,3.07,0,*4E
1495526885.83,58502,17.88,74068.3,10.49,2.47,2.85,0,*45
1495526887.05,58503,17.88,74072.3,10.47,2.51,2.91,0,*48
1495526888.28,58504,17.88,74072.3,10.47,2.81,3.07,0,*4C
1495526889.48,58505,17.88,74072.0,10.47,2.73,2.95,0,*4A
1495526890.69,58506,17.88,74074.5,10.47,2.61,2.73,0,*42
1495526891.95,58507,17.88,74074.3,10.49,2.47,2.55,0,*4D
1495526893.19,58508,17.88,74072.5,10.47,3.03,3.03,0,*4F
1495526894.42,58509,17.88,74068.5,10.47,2.81,2.85,0,*4A
1495526895.66,58510,17.88,74072.5,10.49,3.07,2.95,0,*42
1495526896.87,58511,17.88,74072.0,10.47,3.03,2.91,0,*4D
1495526898.13,58512,17.94,74074.0,10.49,3.33,3.07,0,*4D
1495526899.38,58513,17.88,74072.3,10.49,2.77,2.47,0,*48
1495526900.61,58514,17.88,74070.3,10.47,2.13,1.67,0,*42
1495526901.86,58515,17.88,74070.0,10.49,2.25,1.71,0,*4F
1495526903.06,58516,17.88,74074.8,10.47,2.35,1.89,0,*44
1495526904.3,58517,17.88,74070.3,10.47,2.43,1.85,0,*48
1495526905.53,58518,17.88,74072.3,10.47,2.25,1.67,0,*4B
1495526906.76,58519,17.88,74070.0,10.47,2.01,1.47,0,*4E
1495526907.96,58520,17.88,74070.3,10.47,2.21,1.75,0,*47
1495526909.22,58521,17.88,74072.8,10.45,2.01,1.67,0,*45
1495526910.48,58522,17.88,74068.5,10.45,1.37,0.91,0,*78
1495526911.71,58523,17.88,74072.3,10.45,1.51,1.05,0,*45
1495526912.96,58524,17.88,74070.8,10.41,1.59,1.25,0,*4C
1495526914.18,58525,17.88,74074.3,10.41,1.43,1.01,0,*40
1495526915.44,58526,17.88,74072.5,10.41,1.13,0.87,0,*79
1495526916.68,58527,17.88,74070.8,10.41,1.33,1.01,0,*45
1495526917.93,58528,17.88,74070.3,10.37,0.55,0.25,0,*4D
1495526919.15,58529,17.88,74072.5,10.37,0.55,0.43,0,*4C
1495526920.4,58530,17.88,74070.3,10.37,0.79,0.71,0,*4B
1495526921.62,58531,17.88,74072.0,10.35,0.17,0.09,0,*7F
1495526922.83,58532,17.88,74072.3,10.35,0.17,0.09,0,*7C
1495526924.04,58533,17.88,74072.5,10.31,0.17,0.05,0,*75
1495526925.26,58534,17.88,74072.0,10.29,0.25,0.37,0,*4B
1495526926.48,58535,17.88,74072.8,10.29,0.13,0.21,0,*48
1495526927.68,58536,17.88,74074.8,10.27,-0.07,-0.07,0,*44
1495526928.88,58537,17.88,74072.0,10.25,-0.33,-0.23,0,*46
1495526930.05,58538,17.88,74072.8,10.25,-0.07,0.05,0,*67